DB0TBG Weather Reports


time (UTC)temp
C
wind
direction
speed
KPH
gust
KPH
rain 1hr
cm
rain 24hr
cm
rain mn
cm
humidity
%
barometer
mb
20260506062326 13 288 0.0 0.0 0.00 1.09 0.10 91 962.0
20260506061311 13 286 0.0 0.0 0.00 1.09 0.10 91 962.0
20260506060245 13 284 0.0 0.0 0.00 1.09 0.10 91 962.0
20260506051236 12 281 0.0 0.0 0.00 1.09 0.10 91 962.0
20260506050237 12 278 0.0 0.0 0.00 1.09 0.10 91 962.0
20260506044235 12 281 0.0 0.0 0.00 1.09 0.10 91 961.0
20260506043351 12 276 0.0 0.0 0.10 1.09 0.10 91 961.0
20260506043236 12 276 0.0 0.0 0.10 1.09 0.10 91 961.0
20260506042231 12 281 0.0 0.0 0.10 1.09 0.10 91 961.0
20260506041232 12 278 0.0 0.0 0.10 1.09 0.10 91 961.0
20260506040229 12 277 0.0 0.0 0.10 1.09 0.10 91 961.0
20260506035226 12 276 0.0 0.0 0.10 1.09 0.10 91 961.0
20260506034226 12 274 0.0 0.0 0.10 1.09 0.10 91 961.0
20260506033226 12 275 0.0 0.0 0.00 1.09 0.10 91 961.0
20260506032223 12 276 0.0 0.0 0.00 1.09 0.10 91 961.0
20260506031224 12 274 0.0 0.0 0.00 1.09 0.00 91 961.0
20260506030228 12 272 0.0 0.0 0.00 1.09 0.00 91 962.0
20260506030224 12 272 0.0 0.0 0.00 1.09 0.00 91 962.0
20260506025220 12 278 0.0 0.0 0.00 1.09 0.00 90 962.0
20260506024348 12 275 0.0 0.0 0.00 1.09 0.00 90 962.0
20260506024221 12 275 0.0 0.0 0.00 1.09 0.00 90 962.0
20260506023222 12 276 0.0 0.0 0.00 1.09 0.00 90 962.0
20260506022220 12 271 0.0 0.0 0.00 1.09 0.00 90 962.0
20260506021217 12 268 0.0 0.0 0.00 1.09 0.00 90 962.0
20260506020213 12 268 0.0 0.0 0.00 1.09 0.00 90 962.0
20260506015210 12 261 0.0 0.0 0.00 1.09 0.00 90 961.0
20260506014201 -17 0.0 0.0 0.00 0.00 0.00
20260506014155 12 262 0.0 0.0 0.00 1.09 0.00 90 961.0
20260506013156 12 263 0.0 0.0 0.00 1.09 0.00 90 962.0
20260506012151 12 255 0.0 0.0 0.00 1.09 0.00 90 962.0
20260506011429 12 255 0.0 0.0 0.00 1.09 0.00 90 962.0
20260506011148 12 255 0.0 0.0 0.00 1.09 0.00 90 962.0
20260506010144 12 246 0.0 0.0 0.00 1.09 0.00 90 962.0
20260506005134 12 245 0.0 0.0 0.00 1.09 0.00 89 962.0
20260506004127 12 255 0.0 0.0 0.00 0.00 0.00 89 962.0
20260506004121 12 255 0.0 0.0 0.00 1.09 0.00 89 962.0
20260506003127 12 246 0.0 0.0 0.00 1.09 0.00 89 961.0
20260506003122 12 246 0.0 0.0 0.00 1.09 0.00 89 961.0
20260506002119 12 231 0.0 0.0 0.00 1.09 0.00 89 961.0
20260506001120 12 254 0.0 0.0 0.00 1.09 0.00 89 961.0
20260506000116 12 245 0.0 0.0 0.00 1.09 0.00 89 961.0
20260505235113 12 242 0.0 0.0 0.00 1.09 0.00 89 962.0
20260505234114 12 239 0.0 0.0 0.00 1.09 0.00 89 962.0
20260505232112 12 244 0.0 0.0 0.20 0.00 1.09 89 962.0
20260505231113 12 237 0.0 0.0 0.20 0.00 1.09 89 962.0
20260505230119 -17 232 0.0 0.0 0.00 0.00 1.09 89 962.0
20260505230114 12 232 0.0 0.0 0.20 0.00 1.09 89 962.0
20260505225112 12 232 0.0 0.0 0.20 0.00 1.09 89 962.0
20260505224113 12 238 0.0 0.0 0.20 0.00 1.09 88 962.0
20260505223114 12 225 0.0 0.0 0.41 0.00 1.09 88 962.0
20260505222107 13 217 0.0 0.0 0.41 0.00 1.09 89 962.0
20260505221108 13 216 0.0 0.0 0.41 0.00 1.09 88 962.0
20260505220109 12 199 0.0 0.0 0.41 0.00 1.09 88 962.0
20260505215107 13 206 0.0 0.0 0.41 0.00 1.09 89 962.0
20260505214108 13 216 0.0 0.0 0.41 0.00 0.89 89 963.0
20260505213100 13 192 0.0 0.0 0.30 0.00 0.89 88 963.0
20260505212057 13 176 0.0 0.0 0.30 0.00 0.81 88 962.0
20260505211101 13 196 0.0 0.0 0.30 0.00 0.81 88 96.2
20260505211057 13 196 0.0 0.0 0.30 0.00 0.81 88 962.0
20260505210058 13 195 0.0 0.0 0.30 0.00 0.71 88 962.0
20260505205049 13 197 0.0 0.0 0.30 0.00 0.61 87 963.0
20260505204152 13 181 0.0 0.0 0.00 0.00 0.51 85 963.0
20260505204050 13 181 0.0 0.0 0.00 0.00 0.51 85 963.0
20260505203051 14 248 0.0 0.0 0.00 0.00 0.41 83 963.0
20260505202047 14 259 0.0 0.0 0.00 0.00 0.30 81 963.0
20260505201048 14 272 0.0 0.0 0.00 0.00 0.20 81 963.0
20260505200045 14 276 0.0 0.0 0.00 0.00 0.20 81 963.0
20260505195043 14 279 0.0 0.0 0.00 0.00 0.20 80 963.0
20260505194043 14 287 0.0 0.0 0.00 0.00 0.20 78 963.0
20260505193117 15 291 0.0 0.0 0.00 0.00 0.20 78 963.0
20260505193023 15 291 0.0 0.0 0.00 0.00 0.20 78 963.0
20260505192015 15 294 0.0 0.0 0.00 0.00 0.20 78 963.0
20260505190951 15 294 0.0 0.0 0.00 0.00 0.20 78 962.0
20260505185941 15 295 0.0 0.0 0.00 0.00 0.20 79 962.0
20260505184938 15 292 0.0 0.0 0.00 0.00 0.20 78 962.0
20260505183938 15 295 0.0 0.0 0.00 0.00 0.20 78 963.0
20260505182939 15 294 0.0 0.0 0.00 0.00 0.20 77 963.0
20260505181935 15 304 0.0 0.0 0.00 0.00 0.20 75 963.0
20260505180936 15 291 0.0 0.0 0.00 0.00 0.20 74 963.0
20260505175936 15 291 0.0 0.0 0.00 0.00 0.20 73 963.0
20260505174925 15 292 0.0 0.0 0.00 0.00 0.20 71 963.0
20260505173916 15 290 0.0 0.0 0.00 0.00 0.20 69 963.0
20260505172917 15 292 0.0 0.0 0.00 0.00 0.20 69 963.0
20260505171915 16 289 0.0 0.0 0.00 0.00 0.20 69 963.0
20260505170915 16 289 0.0 0.0 0.00 0.00 0.20 68 964.0
20260505165902 16 292 0.0 0.0 0.00 0.00 0.20 68 964.0
20260505164859 16 289 0.0 0.0 0.00 0.00 0.20 68 964.0
20260505163858 16 293 0.0 0.0 0.00 0.00 0.20 68 964.0
20260505162859 16 289 0.0 0.0 0.00 0.00 0.20 68 964.0
20260505161856 16 291 0.0 0.0 0.00 0.00 0.20 67 964.0
20260505160857 16 289 0.0 0.0 0.00 0.00 0.20 67 964.0
20260505152830 17 292 0.0 0.0 0.00 0.00 0.20 68 964.0
20260505151822 16 295 0.0 0.0 0.00 0.00 0.20 67 964.0
20260505150823 17 287 0.0 0.0 0.00 0.00 0.20 66 964.0
20260505124701 17 285 0.0 0.0 0.00 0.00 0.20 68 965.0
20260505123632 17 284 0.0 0.0 0.00 0.00 0.20 67 965.0
20260505122633 17 283 0.0 0.0 0.00 0.00 0.20 70 965.0
20260505121612 17 286 0.0 0.0 0.00 0.00 0.20 69 965.0
20260505120613 17 287 0.0 0.0 0.00 0.00 0.20 70 966.0
20260505115541 17 287 0.0 0.0 0.00 0.00 0.20 73 966.0
20260505114539 17 288 0.0 0.0 0.00 0.00 0.20 74 966.0
20260505113540 16 289 0.0 0.0 0.00 0.00 0.20 80 966.0
20260505111538 16 286 0.0 0.0 0.00 0.00 0.20 87 966.0
20260505110641 16 290 0.0 0.0 0.00 0.00 0.20 87 966.0
20260505110537 16 290 0.0 0.0 0.00 0.00 0.20 87 966.0
20260505101533 14 268 0.0 0.0 0.00 0.00 0.20 87 966.0
20260505100534 14 268 0.0 0.0 0.00 0.00 0.20 86 966.0
20260505095535 14 272 0.0 0.0 0.00 0.00 0.20 86 966.0
20260505094558 14 275 0.0 0.0 0.00 0.00 0.20 86 966.0
20260505094525 14 275 0.0 0.0 0.00 0.00 0.20 86 966.0
20260505093526 14 273 0.0 0.0 0.10 0.00 0.20 86 966.0
20260505092519 14 275 0.0 0.0 0.10 0.00 0.20 86 967.0
20260505091518 14 273 0.0 0.0 0.10 0.00 0.20 86 967.0
20260505091511 14 273 0.0 0.0 0.10 0.00 0.20 86 967.0
20260505090507 14 272 0.0 0.0 0.10 0.00 0.20 86 967.0
20260505085508 14 273 0.0 0.0 0.10 0.00 0.20 86 967.0
20260505084459 14 273 0.0 0.0 0.10 0.00 0.20 86 967.0
20260505083500 13 271 0.0 0.0 0.00 0.00 0.20 86 967.0
20260505082456 13 273 0.0 0.0 0.00 0.00 0.20 85 967.0
20260505081444 13 271 0.0 0.0 0.00 0.00 0.20 85 967.0
20260505080445 13 271 0.0 0.0 0.00 0.00 0.20 85 966.0
20260505075440 13 271 0.0 0.0 0.00 0.00 0.20 85 966.0
20260505074418 13 272 0.0 0.0 0.00 0.00 0.10 85 966.0
20260505072405 13 271 0.0 0.0 0.00 0.00 0.10 85 966.0
20260505072400 13 271 0.0 0.0 0.00 0.00 0.10 85 966.0
20260505071357 13 271 0.0 0.0 0.00 0.00 0.10 85 966.0